This is the latest recevied weather packets stored in our database for station/object KC5L-7. If no packets are shown the sender has not sent any weather packets the latest 10 day(s).
| Time | Temp. | Humidity | Pressure | Rain* | Wind** | Luminosity | Snow |
|---|---|---|---|---|---|---|---|
| 1777657498 | 16.67° C | 96% | 1011.1 hPa | 0.76 mm | - | - | - |
| 1777656899 | 16.67° C | 96% | 1010.8 hPa | 1.02 mm | - | - | - |
| 1777656298 | 17.22° C | 96% | 1011 hPa | 3.81 mm | - | - | - |
| 1777655098 | 17.22° C | 96% | 1010.6 hPa | 3.3 mm | - | - | - |
| 1777654498 | 17.22° C | 96% | 1010.3 hPa | 3.05 mm | - | - | - |
| 1777652098 | 17.78° C | 93% | 1009 hPa | 0 mm | - | - | - |
| 1777650898 | 17.78° C | 94% | 1009.9 hPa | 0.51 mm | - | - | - |
| 1777650298 | 17.78° C | 95% | 1009.8 hPa | 2.54 mm | - | - | - |
| 1777649698 | 17.78° C | 97% | 1009.9 hPa | 3.3 mm | - | - | - |
| 1777649097 | 16.67° C | 97% | 1009.9 hPa | 3.3 mm | - | - | - |
| 1777648498 | 16.67° C | 97% | 1010 hPa | 3.3 mm | - | - | - |
| 1777647898 | 16.11° C | 97% | 1010.6 hPa | 3.3 mm | - | - | - |
| 1777647298 | 16.11° C | 97% | 1011.3 hPa | 0.51 mm | - | - | - |
| 1777646698 | 16.11° C | 96% | 1011.6 hPa | 0.25 mm | - | - | - |
| 1777646097 | 16.11° C | 96% | 1010.6 hPa | 0 mm | - | - | - |
| 1777645499 | 16.11° C | 96% | 1010.2 hPa | 0 mm | - | - | - |
| 1777644897 | 16.11° C | 96% | 1010.4 hPa | 0.51 mm | - | - | - |
| 1777644298 | 16.11° C | 96% | 1010.9 hPa | 4.83 mm | - | - | - |
| 1777643698 | 16.11° C | 96% | 1011.3 hPa | 4.83 mm | - | - | - |
| 1777643098 | 16.11° C | 96% | 1011.1 hPa | 4.83 mm | - | - | - |
| 1777642498 | 16.11° C | 97% | 1011.9 hPa | 4.83 mm | - | - | - |
| 1777641898 | 16.11° C | 97% | 1012.2 hPa | 4.57 mm | - | - | - |
| 1777641297 | 16.67° C | 97% | 1011.8 hPa | 1.27 mm | - | - | - |
| 1777640098 | 16.67° C | 96% | 1011 hPa | 0 mm | - | - | - |
| 1777639498 | 16.67° C | 96% | 1011 hPa | 0 mm | - | - | - |
* Rain latest hour (hover to see other rain measurements)
** Current wind speed in m/s (hover to see current wind gust speed)